User: anonymous   Login
Location: Unspecified
(0.0000°N, 0.0000°E)
Time: 21:19:56
(UTC+01:00)
Language:

ATLAS 5 CENTAUR R/B - Orbit

View from above orbital plane
View from above orbital plane
View from above satellite
View from above satellite

Ground track
Ground track

The orbit data is extracted from the following two-line orbital elements,

1 31702U 07027B   15062.06999252 0.00000230  00000-0  95614-4 0    02
2 31702  63.3770 140.3013 0175000 353.9583   6.0417 14.18303333    09
Epoch (UTC): 03 March 2015 01:40:47
Eccentricity: 0.0175000
inclination: 63.3770°
perigee height: 705 km
apogee height: 957 km
right ascension of ascending node: 140.3013°
argument of perigee: 353.9583°
revolutions per day: 14.18303333
mean anomaly at epoch: 6.0417°
orbit number at epoch: 0

The dashed part of the orbit path shows where the satellite is in the earth's shadow,  

DLR